Location: Jesenik
(50.2330°N, 17.2000°E)
Time: 02:46:17
(UTC+02:00)

ISS - Pass Details

Date: 30 March 2019
Orbit: 408 x 410 km, 51.6° (Epoch: 23 April)

Event Time Altitude Azimuth Distance (km) Brightness Sun altitude
Rises 20:50:57 0° 286° (WNW) 2,338 1.2 -22.9°
Reaches altitude 10° 20:53:02 10° 285° (WNW) 1,475 -0.1 -23.2°
Enters shadow 20:55:11 37° 278° (W) 651 -2.4 -23.5°
